Location: Montr�al
(45.5000°N, 73.5830°W)
Time: 12:24:20
(UTC-04:00)

ISS - Visible Passes

Search period start: 02 August 2015 00:00
Search period end: 12 August 2015 00:00
Orbit: 401 x 403 km, 51.6° (Epoch: 02 August)

Date Brightness Start Highest point End Pass type
(mag) Time Alt. Az. Time Alt. Az. Time Alt. Az.
02 Aug -3.4 21:17:35 10° SW 21:20:48 61° SSE 21:24:02 10° ENE visible
02 Aug -1.6 22:54:22 10° W 22:57:24 34° NNW 23:00:23 10° NE visible
03 Aug -0.7 00:31:31 10° NW 00:32:59 20° NW 00:32:59 20° NW visible
03 Aug -2.2 22:01:06 10° W 22:04:15 45° NNW 22:07:25 10° NE visible
03 Aug -1.2 23:38:21 10° WNW 23:41:11 26° N 23:41:47 25° NNE visible
04 Aug -3.0 21:07:55 10° WSW 21:11:09 69° NNW 21:14:25 10° ENE visible
04 Aug -1.3 22:45:05 10° WNW 22:47:58 28° N 22:50:30 12° NE visible
05 Aug -0.6 00:21:57 10° NW 00:23:05 18° NW 00:23:05 18° NW visible
05 Aug -1.5 21:51:46 10° WNW 21:54:45 32° NNW 21:57:45 10° NE visible
05 Aug -1.4 23:28:52 10° NW 23:31:45 28° N 23:31:46 28° N visible
06 Aug -2.0 20:58:26 10° W 21:01:34 41° NNW 21:04:41 10° NE visible
06 Aug -1.3 22:35:41 10° WNW 22:38:31 26° N 22:40:27 16° NE visible
07 Aug -0.5 00:12:15 10° NW 00:13:02 16° NW 00:13:02 16° NW visible
07 Aug -1.3 21:42:24 10° WNW 21:45:16 27° N 21:48:07 10° NE visible
07 Aug -1.6 23:19:12 10° NW 23:21:42 32° N 23:21:42 32° N visible
08 Aug -1.5 20:49:04 10° WNW 20:52:01 30° N 20:54:58 10° NE visible
08 Aug -1.5 22:26:06 10° NW 22:29:01 29° N 22:30:22 21° NE visible
09 Aug -0.3 00:02:29 10° WNW 00:02:57 13° WNW 00:02:57 13° WNW visible
09 Aug -1.4 21:32:55 10° WNW 21:35:45 27° N 21:38:36 10° ENE visible
09 Aug -1.7 23:09:26 10° NW 23:11:37 35° NW 23:11:37 35° NW visible
10 Aug -1.4 20:39:38 10° WNW 20:42:28 27° N 20:45:19 10° ENE visible
10 Aug -2.1 22:16:22 10° NW 22:19:26 38° NNE 22:20:17 31° NE visible
10 Aug -0.1 23:52:47 10° WNW 23:52:51 10° WNW 23:52:51 10° WNW visible
11 Aug -1.7 21:23:15 10° NW 21:26:12 30° N 21:28:58 11° ENE visible
11 Aug -1.7 22:59:37 10° WNW 23:01:33 33° WNW 23:01:33 33° WNW visible
